TimePDT,TemperatureF,Dew PointF,Humidity,Sea Level PressureIn,VisibilityMPH,Wind Direction,Wind SpeedMPH,Gust SpeedMPH,PrecipitationIn,Events,Conditions,WindDirDegrees,DateUTC
12:53 AM,60.8,53.6,77,30.04,3.0,South,4.6,-,N/A,,Haze,180,2013-08-17 07:53:00
12:58 AM,60.1,54.3,81,30.05,2.5,South,4.6,-,N/A,,Haze,170,2013-08-17 07:58:00
1:08 AM,59.0,53.6,82,30.04,3.0,South,3.5,-,N/A,,Haze,170,2013-08-17 08:08:00
1:58 AM,62.8,55.0,76,30.05,10.0,Variable,2.3,-,N/A,,Overcast,0,2013-08-17 08:58:00
2:58 AM,60.4,54.7,81,30.04,10.0,SSW,4.6,-,N/A,,Mostly Cloudy,200,2013-08-17 09:58:00
3:58 AM,63.9,55.2,73,30.05,10.0,SW,6.9,-,N/A,,Overcast,230,2013-08-17 10:58:00
4:58 AM,63.1,54.7,74,30.05,10.0,SSW,2.3,-,N/A,,Overcast,200,2013-08-17 11:58:00
5:58 AM,61.9,54.5,77,30.06,10.0,SSW,2.3,-,N/A,,Overcast,200,2013-08-17 12:58:00
6:58 AM,60.1,55.0,83,30.07,5.0,South,2.3,-,N/A,,Haze,170,2013-08-17 13:58:00
7:58 AM,63.3,55.4,75,30.08,10.0,SW,3.5,-,N/A,,Overcast,230,2013-08-17 14:58:00
8:58 AM,66.4,56.1,69,30.09,10.0,WSW,10.4,-,N/A,,Clear,240,2013-08-17 15:58:00
9:58 AM,68.9,57.4,67,30.10,10.0,West,6.9,-,N/A,,Mostly Cloudy,260,2013-08-17 16:58:00
10:58 AM,71.4,58.6,64,30.10,10.0,SSW,8.1,-,N/A,,Scattered Clouds,210,2013-08-17 17:58:00
11:58 AM,73.2,59.4,62,30.10,10.0,WNW,8.1,-,N/A,,Mostly Cloudy,300,2013-08-17 18:58:00
12:58 PM,75.2,59.0,57,30.09,10.0,WSW,5.8,20.7,N/A,,Mostly Cloudy,240,2013-08-17 19:58:00
1:58 PM,75.0,59.4,58,30.09,10.0,WNW,10.4,-,N/A,,Scattered Clouds,290,2013-08-17 20:58:00
2:58 PM,77.0,59.5,55,30.08,10.0,Variable,6.9,-,N/A,,Partly Cloudy,0,2013-08-17 21:58:00
3:58 PM,77.2,58.8,53,30.07,10.0,WNW,9.2,-,N/A,,Scattered Clouds,300,2013-08-17 22:58:00
4:58 PM,76.3,59.7,56,30.07,10.0,WNW,8.1,-,N/A,,Clear,300,2013-08-17 23:58:00
5:58 PM,75.7,58.1,54,30.06,10.0,WNW,10.4,-,N/A,,Clear,300,2013-08-18 00:58:00
6:58 PM,73.2,57.9,59,30.05,10.0,NW,6.9,-,N/A,,Clear,310,2013-08-18 01:58:00
7:58 PM,71.1,57.6,62,30.06,10.0,West,6.9,-,N/A,,Clear,280,2013-08-18 02:58:00
8:58 PM,68.0,58.1,71,30.08,10.0,WNW,6.9,-,N/A,,Clear,290,2013-08-18 03:58:00
9:58 PM,65.8,57.4,74,30.10,10.0,West,5.8,-,N/A,,Clear,280,2013-08-18 04:58:00
10:58 PM,64.6,57.0,76,30.10,10.0,West,3.5,-,N/A,,Overcast,280,2013-08-18 05:58:00
11:58 PM,63.5,56.8,79,30.11,10.0,Calm,Calm,-,N/A,,Mostly Cloudy,0,2013-08-18 06:58:00